SCP
1 2 2 2 1 1 1 1 1 1 1 1 1 0 1 1 1 1 1 1 2 2 2 2 2 2 2 2 2 2 3 3 3 3 3 2 2 2 2 2 2 2 3
2 2 2 2 2 1 1 1 1 1 1 1 1 1 1 1 2 2 2 2 2 3 3 3 3 3 2 2 3 3 3 3 3 3 3 2 2 2 2 2 3 3 3
2 2 2 2 2 1 1 1 1 1 1 1 1 2 2 2 2 2 2 2 2 3 3 3 3 3 3 3 3 3 3 3 3 3 3 2 2 2 2 3 3 3 3
2 2 2 2 1 1 1 1 2 2 2 2 2 2 2 2 3 3 2 2 2 3 3 3 4 4 4 4 3 3 3 3 3 3 3 2 2 2 2 3 3 3 3
1 1 1 1 1 1 1 2 2 2 1 1 2 2 2 2 3 3 2 2 2 2 3 3 3 3 4 4 4 4 3 3 3 3 3 2 2 2 2 3 3 3 3
1 1 1 1 1 1 2 2 1 1 1 1 1 2 2 2 2 2 2 2 2 2 2 2 2 2 3 4 4 3 3 3 3 3 3 3 2 2 2 2 3 3 3
1 1 1 1 1 1 1 1 1 1 1 1 1 1 1 1 1 1 1 1 1 1 1 2 2 2 2 2 2 2 2 2 2 3 3 3 2 2 2 2 2 3 3
1 1 1 1 0 0 0 1 1 1 1 1 1 1 0 0 0 0 1 1 1 1 1 1 1 2 1 1 1 1 2 2 2 3 3 2 2 2 2 2 2 2 3
1 1 1 1 0 0 0 0 0 1 1 1 1 0 0 0 0 0 0 0 0 0 0 1 1 1 1 1 1 1 2 2 2 3 2 2 2 2 2 2 2 2 2
2 1 1 1 1 0 0 0 0 0 0 0 0 0 0 0 0 0 0 0 0 0 0 0 1 1 1 1 1 1 1 1 2 2 2 1 1 2 2 2 2 2 2
3 2 2 2 1 1 1 1 1 0 0 0 0 0 1 0 0 0 0 0 0 0 0 0 0 1 1 1 0 0 0 1 1 1 1 1 1 1 2 2 2 1 1
4 3 3 2 2 1 1 1 1 1 0 0 0 1 1 1 1 0 0 0 0 0 0 0 0 0 0 0 0 0 0 0 0 0 1 1 1 1 2 2 2 2 2
4 3 2 2 2 2 1 1 1 1 0 0 1 1 1 1 1 0 0 0 0 0 0 0 0 0 0 0 0 0 0 0 0 0 0 0 1 1 1 1 1 2 2
4 3 2 2 2 1 1 1 1 1 1 0 1 1 1 1 0 0 0 0 0 0 0 0 0 0 0 0 0 0 0 0 0 0 0 0 0 0 0 1 1 1 1
3 2 1 1 1 1 1 1 1 1 1 1 1 0 0 0 0 0 0 0 0 0 0 0 0 0 0 0 0 0 0 0 0 0 0 0 0 0 0 0 0 1 1
2 2 1 1 1 1 1 1 1 1 1 1 0 0 0 0 0 0 0 0 0 0 0 0 0 0 0 0 0 0 0 0 0 0 0 0 0 0 0 0 0 0 0
2 1 1 1 1 1 1 1 1 1 1 1 0 0 0 0 0 0 1 1 1 1 0 0 0 0 0 0 0 0 0 0 0 0 0 0 0 0 0 0 0 0 0
2 2 2 1 1 1 1 1 1 1 1 1 0 0 1 1 1 1 1 1 1 1 0 0 0 0 0 0 0 0 0 0 0 0 0 0 0 0 0 0 0 0 0
2 2 2 1 1 1 1 1 1 1 1 1 1 1 1 1 1 1 0 0 0 0 0 0 0 0 0 0 0 0 0 0 0 0 0 0 0 0 0 0 0 0 0
3 2 2 1 1 1 1 1 1 1 1 1 1 0 0 0 0 0 0 0 0 0 0 0 0 0 0 0 0 0 0 0 0 0 0 0 0 0 0 0 0 0 0
3 2 2 1 1 1 1 1 1 1 1 1 0 0 0 0 0 0 0 0 0 0 0 0 0 0 0 0 0 0 0 0 0 0 0 0 0 0 0 0 0 0 0
2 2 2 1 1 1 1 1 1 1 1 0 0 0 0 0 0 0 0 0 0 0 0 0 0 0 0 0 0 0 0 0 0 0 0 0 0 0 0 0 0 0 0
1 1 1 1 1 0 0 0 0 0 0 0 0 0 0 0 0 0 0 0 0 0 0 0 0 0 0 0 0 0 0 0 0 0 0 0 0 0 0 0 0 0 0
1 1 1 0 0 0 0 0 0 0 0 0 0 0 0 0 0 0 0 0 0 0 0 0 0 0 0 0 0 0 0 0 0 0 0 0 0 0 0 0 0 0 0
1 0 0 0 0 0 0 0 0 0 0 0 0 0 0 0 0 0 0 0 0 0 0 0 0 0 0 0 0 0 0 0 0 0 0 0 0 0 0 0 0 0 0
0 0 0 0 0 0 0 0 0 0 0 0 0 0 0 0 0 0 0 0 0 0 0 0 0 0 0 0 0 0 0 0 0 0 0 0 0 0 0 0 0 0 0
Wind_Speed
1 0 0 0 1 1 1 1 1 2 2 2 2 3 3 3 3 2 2 6 7 7 8 8 8 8 8 8 8 7 7 7 7 6 6 6 7 7 7 7 7 6 6
1 1 0 0 0 0 0 1 1 1 1 1 2 2 3 3 3 3 2 4 7 7 8 8 8 8 8 8 8 8 8 8 7 7 7 7 7 7 7 7 7 7 7
3 2 1 1 1 0 0 1 1 1 1 1 1 2 2 2 3 3 3 2 3 6 8 8 8 8 9 9 9 9 9 8 8 8 8 8 8 8 8 8 8 8 7
3 2 2 2 1 1 1 1 1 1 1 1 1 1 1 2 3 3 3 3 3 3 5 8 8 8 9 9 10 10 9 10 9 9 9 9 9 9 9 9 9 8 8
3 2 2 2 1 1 1 1 1 1 1 1 1 1 1 2 3 3 4 5 4 4 3 5 8 8 10 10 11 11 11 10 10 11 11 11 11 10 10 10 10 10 10
3 3 2 2 2 2 1 1 1 1 1 1 1 0 1 2 2 3 4 4 4 6 5 5 4 6 10 10 10 11 11 11 11 12 12 12 12 11 11 11 11 11 11
2 2 2 2 2 2 3 2 2 1 1 1 1 1 1 1 2 2 3 3 5 5 5 5 5 5 4 8 9 9 10 11 11 11 12 12 12 12 11 12 12 12 12
3 3 3 2 3 2 3 3 2 2 1 2 2 1 1 2 2 1 2 3 4 3 5 6 5 5 5 4 5 8 10 11 11 11 12 12 12 11 11 12 12 13 13
3 2 3 3 3 3 3 3 3 4 2 1 1 3 2 2 2 2 1 2 2 2 3 4 5 6 6 5 5 7 10 9 11 11 11 11 11 12 12 13 13 13 13
2 3 3 3 3 3 3 3 4 3 3 2 1 1 2 2 2 1 2 1 2 3 3 3 4 5 5 5 5 7 9 9 10 11 11 11 11 11 12 12 13 13 13
2 3 3 3 3 3 3 3 3 3 3 3 2 2 2 1 2 2 2 2 1 2 2 3 3 3 4 4 4 6 8 9 9 9 9 9 9 10 10 11 11 11 11
2 2 2 2 3 2 3 3 3 3 3 3 2 2 2 2 3 3 3 2 2 2 1 1 2 2 2 2 4 4 5 6 6 7 7 8 8 7 7 8 8 8 8
1 2 1 2 2 2 3 2 2 2 3 3 3 2 2 2 2 2 2 2 2 2 1 1 1 2 1 1 2 3 3 3 4 4 4 4 4 4 4 5 5 5 5
2 1 1 1 2 2 2 2 2 2 2 2 2 2 2 2 2 2 3 2 1 1 1 2 1 1 1 1 2 2 2 2 1 1 1 1 1 1 2 2 2 3 3
1 0 0 0 0 1 1 2 1 2 2 2 2 2 2 2 2 2 2 3 3 2 2 1 1 2 1 1 2 2 2 4 4 3 2 1 1 1 0 0 0 1 1
1 1 1 1 1 1 1 1 1 1 1 1 1 1 1 1 1 1 2 2 2 3 2 1 1 1 2 2 3 2 2 5 6 5 4 3 3 3 2 2 1 1 1
1 1 1 2 2 2 1 1 1 0 1 1 1 1 1 1 1 1 1 1 1 2 2 1 0 1 2 2 3 2 3 3 4 7 6 5 5 4 4 3 3 3 3
2 2 2 2 2 2 2 2 1 1 1 0 0 1 0 0 0 0 1 1 1 1 2 1 1 1 2 2 2 3 3 3 4 7 8 8 7 7 6 6 6 5 5
3 3 3 3 2 2 2 1 1 1 2 1 1 1 1 1 1 1 1 1 1 1 1 1 0 1 1 2 2 3 3 3 4 5 8 9 10 10 9 8 8 8 7
3 3 3 3 3 3 2 2 2 3 3 3 3 3 3 3 3 2 2 2 2 2 2 1 1 1 1 2 2 2 2 3 3 4 6 7 9 10 11 10 10 9 8
4 3 4 4 4 4 3 3 3 4 4 5 5 4 5 6 7 5 3 2 3 2 2 2 2 2 1 1 1 1 1 1 3 3 3 4 4 5 6 8 9 9 9
4 4 5 5 5 5 7 7 5 4 5 5 5 5 6 7 9 11 11 9 6 4 3 2 2 2 1 1 1 0 0 1 1 2 2 3 3 4 4 4 8 9 8
4 5 5 5 6 7 9 9 8 6 6 5 5 5 5 6 6 6 9 11 11 10 7 3 3 1 1 1 0 1 1 2 1 1 1 2 3 3 3 4 8 9 8
4 5 5 5 5 6 8 8 9 7 7 7 6 5 5 5 5 5 6 7 7 6 5 4 3 2 2 1 1 1 2 2 2 3 2 2 2 2 3 3 6 8 8
5 5 4 5 5 6 8 7 7 5 6 6 6 6 5 5 6 6 6 6 6 5 7 9 7 7 7 7 4 3 3 3 2 2 2 1 1 1 2 2 3 6 6
5 5 6 5 5 5 7 7 7 4 5 5 5 5 8 6 6 6 5 5 5 4 4 5 6 7 6 7 7 3 2 2 1 2 2 1 1 1 1 1 2 2 2
Wind_Direction
187 237 352 34 34 41 60 59 62 75 85 111 145 155 161 162 164 172 191 195 192 192 190 189 187 186 183 185 188 187 183 180 178 178 182 186 186 185 186 189 190 190 189
185 193 244 283 290 286 66 102 109 103 90 133 163 167 177 174 179 184 199 210 208 206 204 203 201 199 197 200 202 202 199 196 193 191 196 201 200 199 199 202 203 204 202
188 189 210 239 249 210 93 79 92 96 120 143 168 181 185 190 188 198 204 212 218 218 213 211 212 210 209 209 211 212 209 204 202 204 207 210 211 211 210 211 211 211 207
189 184 201 230 216 160 150 144 128 108 117 154 194 214 202 200 204 209 213 214 216 223 225 219 216 217 219 221 221 219 217 213 211 211 213 216 218 219 218 219 216 215 213
181 181 201 221 189 162 175 202 153 150 170 197 216 230 225 220 216 219 222 223 221 223 226 233 231 228 229 233 233 229 226 222 221 219 220 221 223 223 222 223 223 220 218
183 179 195 199 170 165 191 192 164 145 163 184 203 215 264 242 227 226 229 227 227 229 229 233 238 242 241 242 240 237 234 231 227 227 227 227 228 227 226 226 226 226 226
192 186 201 193 180 189 207 193 167 158 156 148 107 18 334 288 242 238 232 231 234 233 229 229 231 235 243 247 246 242 242 240 236 233 230 229 231 231 229 229 229 230 230
202 203 206 205 194 194 203 194 172 157 166 158 147 114 348 340 326 259 231 229 237 233 234 234 231 233 238 242 248 247 247 247 246 241 236 233 232 232 230 231 232 232 232
210 208 207 207 202 193 205 202 186 176 181 181 166 154 162 234 298 320 280 246 236 227 237 240 235 235 235 235 245 252 249 248 249 250 245 238 234 232 232 233 235 235 235
219 217 217 209 205 197 203 206 191 182 170 184 186 194 180 170 183 304 323 293 259 245 245 243 242 238 235 236 238 244 249 247 248 252 252 246 236 233 234 236 239 240 239
247 235 228 216 209 204 206 203 188 184 178 178 181 175 169 169 181 187 268 304 309 266 252 249 251 248 241 237 242 249 249 245 245 250 253 253 246 239 237 238 242 245 245
264 248 232 224 217 215 213 208 199 189 187 183 187 183 177 179 188 185 219 257 283 292 286 273 264 264 256 250 255 254 250 243 247 251 253 255 250 243 241 239 240 241 244
277 263 238 223 219 218 214 202 192 199 195 192 196 202 203 212 183 176 190 228 255 288 318 345 304 287 279 264 273 275 271 253 243 245 246 249 245 243 245 246 242 242 245
262 272 257 226 220 210 203 187 187 200 193 201 206 200 212 226 205 194 190 187 229 279 302 294 334 321 325 326 331 323 333 353 307 253 231 226 223 224 238 239 230 224 215
273 282 315 356 224 181 183 175 180 199 185 204 217 213 222 237 222 225 213 197 191 227 278 282 308 359 356 15 12 22 21 42 42 49 57 69 82 84 72 24 268 217 170
33 65 59 48 45 60 117 150 172 195 182 217 209 207 229 243 234 232 219 213 202 198 229 267 287 350 2 16 41 35 36 46 49 48 49 52 58 59 60 70 69 61 68
70 77 73 63 59 49 50 75 59 106 157 214 227 200 246 261 228 240 203 181 189 187 212 270 320 3 21 26 22 31 41 50 49 50 53 56 60 64 68 68 69 73 77
76 80 80 71 62 55 56 73 56 48 85 93 89 103 317 335 21 29 124 135 162 182 183 233 326 16 22 26 26 31 40 50 55 53 58 59 61 64 68 74 78 74 70
70 68 74 71 58 50 51 60 80 75 71 59 52 66 43 66 56 48 78 94 109 125 154 177 256 31 37 27 29 37 46 42 53 54 59 58 60 63 65 68 71 71 68
69 64 63 59 53 52 51 58 73 80 71 61 57 61 63 71 71 59 62 64 83 89 96 110 90 49 40 20 35 36 39 35 36 41 51 56 57 60 60 62 65 66 64
70 69 67 56 49 52 50 62 68 74 73 69 59 57 65 71 73 71 73 68 81 89 90 89 79 61 41 29 11 356 42 42 50 35 46 44 45 48 48 53 62 63 64
76 74 68 61 55 55 56 61 69 70 73 74 67 59 61 58 67 70 71 70 72 82 89 84 76 73 25 342 329 1 93 54 54 14 31 43 44 50 42 47 54 60 63
77 73 66 66 64 56 57 62 67 75 76 70 65 62 61 56 58 67 66 64 60 60 69 95 90 65 22 331 38 74 75 70 68 15 37 55 41 52 41 48 58 61 62
75 72 67 69 71 60 60 65 69 72 74 67 60 62 68 56 58 71 75 68 59 49 52 65 75 51 43 45 87 109 113 98 79 49 35 64 37 37 41 39 54 61 59
81 73 68 64 65 54 56 66 75 79 74 63 56 55 63 61 56 68 80 77 62 45 53 64 65 58 55 55 67 89 85 93 72 45 26 61 48 34 34 34 43 51 52
92 84 72 61 62 57 53 64 72 85 82 71 56 51 56 61 56 60 79 84 73 42 40 44 45 43 46 49 52 60 87 100 87 58 20 42 57 57 57 18 12 29 46